• In Colombia
  • List of Countries
  • For 7 days
  • Water Temperature
  • Weather Map
  • Weather Widgets
  • user-avatar
    Login

    Hourly Weather Shkoder

    Today, 14 December, Saturday

    Time Temperature Precipitation Wind Pressure Humidity
    00:00 +7°C° 0.9 mm 4 mps 719 mmHg 85%
    01:00 +8°C° 0 mm 3 mps 719 mmHg 85%
    02:00 +8°C° 3.5 mm 3 mps 719 mmHg 88%
    03:00 +8°C° 3.5 mm 3 mps 719 mmHg 91%
    04:00 +7°C° 3.5 mm 3 mps 719 mmHg 94%
    05:00 +7°C° 0.9 mm 3 mps 720 mmHg 92%
    06:00 +8°C° 0.9 mm 2 mps 721 mmHg 90%
    07:00 +8°C° 0 mm 2 mps 722 mmHg 90%
    08:00 +8°C° 0.1 mm 2 mps 723 mmHg 88%
    09:00 +10°C° 0.1 mm 1 mps 724 mmHg 87%
    10:00 +10°C° 0.1 mm 1 mps 725 mmHg 85%
    11:00 +11°C° 0 mm 1 mps 726 mmHg 82%
    12:00 +12°C° 0 mm 1 mps 726 mmHg 79%
    13:00 +12°C° 0 mm 1 mps 727 mmHg 76%
    14:00 +12°C° 0 mm 1 mps 728 mmHg 78%
    15:00 +11°C° 0 mm 1 mps 729 mmHg 81%
    16:00 +11°C° 0 mm 1 mps 730 mmHg 84%
    17:00 +10°C° 0 mm 1 mps 731 mmHg 83%
    18:00 +10°C° 0 mm 1 mps 732 mmHg 82%
    19:00 +9°C° 0 mm 1 mps 733 mmHg 81%
    20:00 +9°C° 0 mm 1 mps 734 mmHg 80%
    21:00 +8°C° 0 mm 2 mps 735 mmHg 78%
    22:00 +8°C° 0 mm 2 mps 736 mmHg 76%
    23:00 +8°C° 0 mm 2 mps 737 mmHg 75%

    Tomorrow, 15 December, Sunday

    Time Temperature Precipitation Wind Pressure Humidity
    00:00 +7°C° 0 mm 2 mps 737 mmHg 74%
    01:00 +7°C° 0 mm 2 mps 738 mmHg 73%
    02:00 +7°C° 0 mm 2 mps 738 mmHg 73%
    03:00 +7°C° 0 mm 2 mps 738 mmHg 72%
    04:00 +7°C° 0 mm 2 mps 739 mmHg 72%
    05:00 +7°C° 0 mm 2 mps 739 mmHg 72%
    06:00 +7°C° 0 mm 2 mps 739 mmHg 72%
    07:00 +7°C° 0 mm 2 mps 740 mmHg 72%
    08:00 +8°C° 0 mm 2 mps 740 mmHg 71%
    09:00 +10°C° 0 mm 2 mps 741 mmHg 70%
    10:00 +12°C° 0 mm 1 mps 741 mmHg 69%
    11:00 +13°C° 0 mm 1 mps 741 mmHg 66%
    12:00 +14°C° 0 mm 1 mps 741 mmHg 64%
    13:00 +15°C° 0 mm 1 mps 741 mmHg 61%
    14:00 +14°C° 0 mm 1 mps 741 mmHg 63%
    15:00 +13°C° 0 mm 1 mps 742 mmHg 64%
    16:00 +11°C° 0 mm 0 mps 742 mmHg 66%
    17:00 +12°C° 0 mm 1 mps 742 mmHg 64%
    18:00 +11°C° 0 mm 1 mps 743 mmHg 62%
    19:00 +11°C° 0 mm 1 mps 743 mmHg 60%
    20:00 +11°C° 0 mm 1 mps 743 mmHg 60%
    21:00 +11°C° 0 mm 1 mps 744 mmHg 61%
    22:00 +11°C° 0 mm 1 mps 744 mmHg 61%
    23:00 +11°C° 0 mm 1 mps 744 mmHg 64%

    Day after tomorrow, 16 December, Monday

    Time Temperature Precipitation Wind Pressure Humidity
    00:00 +11°C° 0 mm 1 mps 745 mmHg 68%
    01:00 +11°C° 0 mm 1 mps 745 mmHg 71%
    02:00 +11°C° 0 mm 1 mps 745 mmHg 75%
    03:00 +10°C° 0 mm 1 mps 745 mmHg 78%
    04:00 +10°C° 0 mm 1 mps 745 mmHg 82%
    05:00 +10°C° 0 mm 1 mps 745 mmHg 83%
    06:00 +11°C° 0 mm 1 mps 745 mmHg 85%
    07:00 +11°C° 0 mm 1 mps 746 mmHg 87%
    08:00 +12°C° 0 mm 1 mps 746 mmHg 86%
    09:00 +13°C° 0 mm 1 mps 746 mmHg 85%
    10:00 +14°C° 0 mm 1 mps 746 mmHg 84%
    11:00 +14°C° 0 mm 1 mps 746 mmHg 81%
    12:00 +15°C° 0 mm 1 mps 745 mmHg 79%
    13:00 +16°C° 0 mm 1 mps 745 mmHg 76%
    14:00 +15°C° 0 mm 1 mps 745 mmHg 78%
    15:00 +14°C° 0 mm 1 mps 745 mmHg 81%
    16:00 +13°C° 0 mm 1 mps 745 mmHg 83%
    17:00 +13°C° 0 mm 1 mps 745 mmHg 81%
    18:00 +12°C° 0 mm 1 mps 745 mmHg 79%
    19:00 +12°C° 0 mm 1 mps 746 mmHg 77%
    20:00 +12°C° 0 mm 1 mps 746 mmHg 77%
    21:00 +11°C° 0 mm 1 mps 746 mmHg 76%
    22:00 +11°C° 0 mm 1 mps 746 mmHg 75%
    23:00 +11°C° 0 mm 1 mps 746 mmHg 75%

    17 December, Tuesday

    Time Temperature Precipitation Wind Pressure Humidity
    00:00 +11°C° 0 mm 1 mps 746 mmHg 75%
    01:00 +11°C° 0 mm 1 mps 745 mmHg 74%
    02:00 +11°C° 0 mm 1 mps 745 mmHg 75%
    03:00 +10°C° 0 mm 1 mps 745 mmHg 75%
    04:00 +10°C° 0 mm 1 mps 745 mmHg 75%
    05:00 +10°C° 0 mm 1 mps 745 mmHg 76%
    06:00 +10°C° 0 mm 1 mps 745 mmHg 77%
    07:00 +10°C° 0 mm 1 mps 745 mmHg 77%
    08:00 +11°C° 0 mm 1 mps 745 mmHg 76%
    09:00 +13°C° 0 mm 1 mps 745 mmHg 75%
    10:00 +14°C° 0 mm 1 mps 746 mmHg 75%
    11:00 +14°C° 0 mm 1 mps 745 mmHg 75%
    12:00 +15°C° 0 mm 1 mps 745 mmHg 76%
    13:00 +15°C° 0 mm 1 mps 744 mmHg 77%
    14:00 +14°C° 0 mm 1 mps 744 mmHg 80%
    15:00 +13°C° 0 mm 1 mps 744 mmHg 83%
    16:00 +13°C° 0 mm 1 mps 745 mmHg 87%
    17:00 +12°C° 0 mm 1 mps 745 mmHg 87%
    18:00 +12°C° 0 mm 1 mps 745 mmHg 86%
    19:00 +11°C° 0 mm 1 mps 745 mmHg 86%
    20:00 +11°C° 0 mm 1 mps 745 mmHg 86%
    21:00 +11°C° 0 mm 1 mps 745 mmHg 85%
    22:00 +11°C° 0 mm 1 mps 745 mmHg 85%
    23:00 +11°C° 0 mm 1 mps 745 mmHg 84%

    18 December, Wednesday

    Time Temperature Precipitation Wind Pressure Humidity
    00:00 +11°C° 0 mm 1 mps 745 mmHg 83%
    01:00 +10°C° 0 mm 1 mps 745 mmHg 83%
    02:00 +10°C° 0 mm 1 mps 745 mmHg 82%
    03:00 +10°C° 0 mm 1 mps 745 mmHg 82%
    04:00 +10°C° 0 mm 1 mps 745 mmHg 82%
    05:00 +11°C° 0 mm 1 mps 745 mmHg 83%
    06:00 +11°C° 0 mm 1 mps 745 mmHg 84%
    07:00 +11°C° 0 mm 1 mps 745 mmHg 85%
    08:00 +12°C° 0 mm 1 mps 745 mmHg 83%
    09:00 +13°C° 0 mm 1 mps 745 mmHg 82%
    10:00 +14°C° 0 mm 1 mps 745 mmHg 80%
    11:00 +15°C° 0 mm 1 mps 745 mmHg 77%
    12:00 +15°C° 0 mm 1 mps 744 mmHg 75%
    13:00 +16°C° 0 mm 1 mps 744 mmHg 72%
    14:00 +15°C° 0 mm 1 mps 744 mmHg 75%
    15:00 +14°C° 0 mm 1 mps 744 mmHg 78%
    16:00 +13°C° 0 mm 1 mps 744 mmHg 80%
    17:00 +13°C° 0 mm 1 mps 744 mmHg 78%
    18:00 +12°C° 0 mm 1 mps 744 mmHg 76%
    19:00 +12°C° 0 mm 1 mps 744 mmHg 74%
    20:00 +12°C° 0 mm 1 mps 744 mmHg 73%
    21:00 +12°C° 0 mm 1 mps 744 mmHg 72%
    22:00 +12°C° 0 mm 1 mps 744 mmHg 72%
    23:00 +12°C° 0 mm 1 mps 744 mmHg 70%

    19 December, Thursday

    Time Temperature Precipitation Wind Pressure Humidity
    00:00 +12°C° 0 mm 1 mps 744 mmHg 69%
    01:00 +12°C° 0 mm 1 mps 743 mmHg 67%
    02:00 +12°C° 0 mm 1 mps 743 mmHg 67%
    03:00 +12°C° 0 mm 1 mps 743 mmHg 67%
    04:00 +12°C° 0 mm 1 mps 743 mmHg 68%
    05:00 +12°C° 0 mm 1 mps 742 mmHg 67%
    06:00 +12°C° 0 mm 1 mps 742 mmHg 67%
    07:00 +12°C° 0 mm 1 mps 742 mmHg 67%
    08:00 +13°C° 0 mm 1 mps 742 mmHg 65%
    09:00 +14°C° 0 mm 1 mps 742 mmHg 63%
    10:00 +15°C° 0 mm 1 mps 741 mmHg 61%
    11:00 +15°C° 0.4 mm 1 mps 741 mmHg 67%
    12:00 +14°C° 0.4 mm 1 mps 740 mmHg 72%
    13:00 +13°C° 0.4 mm 1 mps 740 mmHg 77%
    14:00 +13°C° 1.6 mm 1 mps 740 mmHg 81%
    15:00 +12°C° 1.6 mm 2 mps 740 mmHg 85%
    16:00 +12°C° 1.6 mm 2 mps 739 mmHg 89%
    17:00 +12°C° 1.5 mm 2 mps 739 mmHg 91%
    18:00 +12°C° 1.5 mm 2 mps 739 mmHg 92%
    19:00 +10°C° 1.5 mm 2 mps 739 mmHg 93%
    20:00 +12°C° 1.4 mm 2 mps 739 mmHg 91%
    21:00 +11°C° 1.4 mm 3 mps 739 mmHg 90%
    22:00 +11°C° 1.4 mm 3 mps 739 mmHg 88%
    23:00 +10°C° 1.9 mm 3 mps 739 mmHg 90%
    Show more